www.pogodaiklimat.ru

Погода и климат >> Архив погоды >> Малайзия >> Нагорье Кэмерон


ПОГОДА на Нагорье Кэмерон

  • Прогноз погоды на Нагорье Кэмерон
  • Монитор погоды на Нагорье Кэмерон

АРХИВ ПОГОДЫ на Нагорье Кэмерон

Время (UTC), дата Ветер
(напр.,м/с)
 
Видим.   Явления Облачность Т
(С)
Тd
(С)
f
(%)
Тe
(С)
Тes
(С)
Комфортность P
(гПа)
Po
(гПа)
Тmin
(С)
Tmax
(С)
R
(мм)
R24
(мм)
S
(см)
06 12.06 СЗ 2 14 км мгла 9/4
[Cu med, cong Ac trans Ci sp]
+22.0 +19.1 84 +27 +35 душно 1012.5 847.1
12 12.06 штиль 0 н/о н/о +19.5 +18.2 92 +22 +22 комфорт 1013.0 846.8 +24.2
18 12.06 С 1 н/о н/о +17.2 +16.2 94 +19 +19 1015.4 847.6
00 13.06 СВ 2 12 км 8/3 120 м
[Sc Ac lent Cs]
+15.8 +13.9 88 +16 +17 1016.6 847.4 +15.5
06 13.06 З 2 14 км мгла 9/4 60 м
[Cu med, cong Ac trans Cs]
+23.2 +18.8 76 +29 +36 душно 1012.6 847.2
12 13.06 С 1 н/о н/о +19.3 +16.7 85 +23 +23 комфорт 1014.7 847.5 +24.4
18 13.06 З 1 н/о н/о +16.3 +15.2 93 +17 +17 1016.5 847.9
00 14.06 Ю 2 7000 м дымка 9/4
[Cb cap Ac lent Ci sp]
+16.9 +16.2 96 +17 +18 1014.9 847.1 +15.9 0.2
06 14.06 СЗ 3 15 км 9/1 300 м
[Cu hum Ac und Ci fib]
+24.5 +17.6 65 +29 +36 душно 1012.4 846.7
12 14.06 С 1 н/о н/о +19.4 +14.6 74 +22 +22 комфорт 1014.4 846.4 +24.7
18 14.06 З 1 н/о н/о +18.0 +17.0 94 +20 +20 1015.2 847.9
00 15.06 штиль 0 8000 м дымка 9/3
[Sc Ac lent Cs]
+17.0 +16.3 96 +17 +17 1015.8 847.9 +16.7
06 15.06 З 2 10 км мгла 9/5
[Cu Sc Ac und Ci sp]
+20.4 +18.2 87 +25 +31 комфорт 1013.6 847.4
12 15.06 штиль 0 н/о н/о +18.7 +13.2 70 +19 +19 1015.7 846.9 +20.9
18 15.06 штиль 0 н/о н/о +16.6 +14.0 85 +16 +16 1016.9 847.8
00 16.06 штиль 0 13 км мгла 9/3 120 м
[Cb calv Ac trans Ci sp]
+16.2 +14.7 91 +16 +17 1016.0 847.3 +15.3
06 16.06 СЗ 3 15 км мгла 9/4 300 м
[Cu hum Ac trans Ci sp]
+23.9 +18.7 73 +29 +35 душно 1012.9 847.5
12 16.06 штиль 0 н/о н/о +19.5 +18.0 91 +22 +22 комфорт 1013.3 846.9 +24.2
18 16.06 З 2 н/о н/о +17.5 +14.5 83 +18 +18 1016.6 847.9
00 17.06 штиль 0 13 км мгла 9/3 30 м
[Cb calv Ac lent Cs]
+17.0 +14.9 87 +17 +17 1015.5 847.1 +16.2
06 17.06 З 2 14 км мгла 9/5 240 м
[Cb cap Ac trans Ci sp]
+23.0 +17.8 73 +28 +34 душно 1013.2 847.3
12 17.06 штиль 0 н/о н/о +17.7 +16.7 94 +18 +18 1014.8 847.4 +23.6 13
18 17.06 штиль 0 н/о н/о +16.8 +15.8 94 +17 +17 1016.1 847.9 0.2
00 18.06 В 1 10 км дымка 9/1
[Sc Ac trans Cs]
+15.9 +15.5 97 +17 +18 1015.4 847.0 +15.7 13
06 18.06 ЮЗ 2 12 км мгла 9/6 60 м
[Cu Sc Ac trans Ci sp]
+21.1 +17.7 81 +25 +30 комфорт 1013.6 847.3
12 18.06 СЗ 1 н/о н/о +19.6 +18.1 91 +23 +23 комфорт 1013.2 846.9 +23.8
18 18.06 СВ 2 н/о н/о +17.0 +15.4 90 +18 +18 1015.3 847.1 0.2
00 19.06 С 1 13 км мгла 9/3 90 м
[Cb calv Ac trans Cs]
+16.7 +15.7 94 +18 +19 1015.1 847.0 +15.9 0.2

 

Местоположение метеостанции Нагорье Кэмерон (Малайзия): широта 4.47 долгота 101.37 высота над уровнем моря 1545 м.

В архиве по умолчанию представлена погода на Нагорье Кэмерон за последнюю неделю. Архивные данные за месяц целиком и за предыдущие месяцы, начиная с января 2011 года, Вы можете получить, выбрав интересующий диапазон дат из раскрывающегося списка и нажав кнопку "Ввод!".


*Определитесь, кто Вы:
робот инопланетянин человек

Внимание! Время в таблицах - всемирное. Для получения местного времени необходимо прибавить поправку, которая равна 7 ч.

Смотрите также архив погоды в соседних городах и на ближайших метеорологических станциях:

Погода в Ипохе (Малайзия) (32 км)
Погода в Ситаване (Малайзия) (79 км)
Погода в Куала-Лумпуре (Малайзия) (151 км)
Погода в Пенанге (Малайзия) (154 км)
Погода на Авиабазе Баттерворт (Малайзия) (156 км)
Погода в Куала-Лумпур аэропорту (Малайзия) (198 км)
Погода в Кота-Бхару (Малайзия) (214 км)
Погода в Куала-Тренггану (Малайзия) (217 км)
Погода в Куантане (Малайзия) (218 км)
Погода в Алор Стар (Малайзия) (220 км)

Пояснения к столбцам:

Ветер - указаны скорость ветра в м/с - средняя за 10 мин, порывы в срок и между сроками (в фигурных скобках) и направление, откуда дует ветер: С - северный, СВ - северо-восточный, В - восточный, ЮВ - юго-восточный, Ю - южный, ЮЗ - юго-западный, З - западный, СЗ - северо-западный.
Видимость - горизонтальная дальность видимости в метрах или километрах. При видимости от 1 до 10 км при отсутствии осадков обычно наблюдается дымка, при ухудшении видимости до 1 км и менее - туман. В сухую погоду видимость может ухудшаться дымом, пылью или мглою.
Явления - указаны атмосферные явления, наблюдавшиеся в срок или в последний час перед сроком; фигурными скобками обозначены явления, наблюдавшиеся между сроками (за 1-3 часа до срока); квадратными скобками обозначены град или гололедные отложения с указанием их диаметра в мм.
Облачность - указаны через наклонную черту общая и нижняя облачность в баллах и высота нижней границы облаков в метрах; квадратными скобками обозначены формы облаков: Ci - перистые, Cs - перисто-слоистые, Cc - перисто-кучевые, Ac - высококучевые, As - высокослоистые, Sc - слоисто-кучевые, Ns - слоисто-дождевые, Cu - кучевые, Cb - кучево-дождевые. Подробнее классификацию облаков см. в Атласе облаков (PDF).
T - Температура воздуха - температура, измеренная на высоте 2 м над землей.
Td - Температура точки росы - температура, при понижении до которой содержащийся в воздухе водяной пар достигнет насыщения.
f - Относительная влажность воздуха - влажноcть воздуха, измеренная на высоте 2 м над землей.
Te - Эффективная температура - температура, которую ощущает одетый по сезону человек в тени. Характеристика душности погоды. При расчете учитывается влияние влажности воздуха и скорости ветра на теплоощущения человека.
Tes - Эффективная температура на солнце - температура, которую ощущает человек, с поправкой на солнечный нагрев. Характеристика знойности погоды. Зависит от высоты солнца над горизонтом, облачности и скорости ветра. Ночью, в пасмурную погоду, а также при ветре 12 м/с и более поправка равна нулю.
P - Атмосферное давление - приведенное к уровню моря атмосферное давление.
Po - Атмосферное давление - измеренное на уровне метеостанции атмосферное давление.
Tmin - Минимальная температура - минимум температуры воздуха на высоте 2 м над землей.
Tmax - Максимальная температура - максимум температуры воздуха на высоте 2 м над землей.
R - Количество осадков - Количество выпавших осадков за период времени, мм. При наведении курсора мыши на число - период времени, за который выпало указанное количество осадков.
R24 - Количество осадков - Количество выпавших осадков за 24 часа, мм.
S - Снежный покров - Высота снежного покрова, см. При наведении курсора мыши на число - состояние снежного покрова и степень покрытия местности в баллах.